GW0681 Weather Reports


time (UTC)temp
C
wind
direction
speed
KPH
gust
KPH
rain 1hr
cm
rain 24hr
cm
rain mn
cm
humidity
%
barometer
mb
20260507133541 19 51 17.7 32.2 0.00 0.28 0.00 55 1006.9
20260507133053 19 352 17.7 32.2 0.00 0.28 0.00 56 1006.8
20260507132540 18 53 19.3 30.6 0.00 0.28 0.00 56 1007.0
20260507132040 18 304 19.3 30.6 0.00 0.28 0.00 55 1007.0
20260507131555 18 315 19.3 35.4 0.00 0.28 0.00 55 1007.0
20260507131041 18 37 19.3 35.4 0.00 0.28 0.00 55 1007.1
20260507130544 18 349 14.5 30.6 0.00 0.28 0.00 55 1007.1
20260507130108 18 16 16.1 35.4 0.00 0.28 0.00 57 1007.1
20260507125540 19 355 16.1 35.4 0.00 0.30 0.00 56 1007.0
20260507125043 19 341 22.5 35.4 0.00 0.30 0.00 57 1007.1
20260507124607 19 341 16.1 27.4 0.00 0.30 0.00 58 1007.1
20260507124041 19 10 16.1 25.7 0.00 0.30 0.00 58 1007.1
20260507123541 19 311 8.0 20.9 0.00 0.30 0.00 61 1007.1
20260507123105 18 35 11.3 20.9 0.00 0.30 0.00 62 1007.1
20260507122541 18 22 8.0 14.5 0.00 0.30 0.00 63 1006.9
20260507122041 18 338 6.4 12.9 0.00 0.30 0.00 64 1007.0
20260507121558 18 55 6.4 11.3 0.00 0.30 0.00 64 1007.1
20260507121042 18 345 4.8 12.9 0.00 0.30 0.00 64 1007.0
20260507120542 18 40 8.0 12.9 0.00 0.30 0.00 65 1007.0
20260507120052 18 19 6.4 14.5 0.00 0.30 0.00 66 1006.9
20260507115542 18 32 8.0 14.5 0.00 0.36 0.00 66 1006.9
20260507115040 18 314 6.4 17.7 0.00 0.36 0.00 65 1007.0
20260507114555 19 315 8.0 17.7 0.00 0.36 0.00 64 1007.0
20260507114040 19 80 8.0 17.7 0.00 0.36 0.00 61 1007.0
20260507113545 19 72 9.7 16.1 0.00 0.36 0.00 62 1007.1
20260507113051 19 3 8.0 16.1 0.00 0.36 0.00 63 1007.0
20260507112544 20 44 8.0 11.3 0.00 0.36 0.00 62 1006.9
20260507112042 20 333 3.2 12.9 0.00 0.36 0.00 62 1007.0
20260507111551 19 68 1.6 12.9 0.00 0.36 0.00 63 1007.0
20260507111042 19 74 6.4 12.9 0.00 0.36 0.00 64 1007.1
20260507110542 18 248 3.2 17.7 0.00 0.36 0.00 67 1007.0
20260507110051 18 20 8.0 17.7 0.00 0.36 0.00 67 1007.2
20260507105541 18 340 8.0 17.7 0.00 0.38 0.00 67 1007.2
20260507105044 18 302 11.3 17.7 0.00 0.38 0.00 68 1007.3
20260507104554 18 104 9.7 16.1 0.00 0.38 0.00 68 1007.3
20260507104041 18 282 6.4 16.1 0.00 0.38 0.00 68 1007.5
20260507103544 18 284 3.2 14.5 0.00 0.38 0.00 70 1007.6
20260507103049 18 51 6.4 12.9 0.00 0.38 0.00 70 1007.7
20260507102542 17 324 6.4 12.9 0.00 0.38 0.00 69 1007.8
20260507102043 18 324 4.8 12.9 0.00 0.38 0.00 69 1007.9
20260507101558 18 295 6.4 11.3 0.00 0.38 0.00 69 1007.9
20260507101042 17 50 4.8 9.7 0.00 0.38 0.00 71 1008.0
20260507100542 17 304 3.2 8.0 0.00 0.38 0.00 71 1008.1
20260507100058 17 328 3.2 6.4 0.00 0.38 0.00 71 1008.1
20260507095542 17 103 1.6 6.4 0.00 0.38 0.00 70 1008.2
20260507095041 18 242 1.6 4.8 0.00 0.38 0.00 68 1008.2
20260507094550 18 75 0.0 6.4 0.00 0.38 0.00 71 1008.2
20260507094043 18 98 3.2 6.4 0.00 0.38 0.00 70 1008.2
20260507093542 18 84 0.0 1.6 0.00 0.38 0.00 70 1008.2
20260507093100 18 81 0.0 6.4 0.00 0.38 0.00 71 1008.3
20260507092542 18 97 1.6 6.4 0.00 0.38 0.00 72 1008.3
20260507092041 18 101 0.0 6.4 0.00 0.38 0.00 71 1008.4
20260507091550 17 0 1.6 6.4 0.00 0.38 0.00 73 1008.4
20260507091042 17 0 1.6 6.4 0.00 0.38 0.00 73 1008.6
20260507090542 17 93 0.0 4.8 0.00 0.38 0.00 73 1008.6
20260507090051 16 101 1.6 4.8 0.00 0.38 0.00 77 1008.7
20260507085542 16 124 1.6 4.8 0.00 0.41 0.00 76 1008.8
20260507085041 16 115 0.0 4.8 0.00 0.41 0.00 79 1008.9
20260507084551 15 84 0.0 8.0 0.00 0.41 0.00 80 1008.9
20260507084041 15 83 3.2 9.7 0.00 0.41 0.00 78 1008.9
20260507083541 15 97 3.2 9.7 0.00 0.41 0.00 81 1008.9
20260507083120 15 109 4.8 9.7 0.00 0.41 0.00 81 1009.0
20260507082541 15 103 3.2 9.7 0.00 0.41 0.00 81 1008.9
20260507082045 15 120 3.2 9.7 0.00 0.41 0.00 83 1008.8
20260507081600 15 112 3.2 9.7 0.00 0.41 0.00 82 1008.9
20260507081042 15 121 4.8 9.7 0.00 0.41 0.00 81 1008.9
20260507080542 15 103 3.2 8.0 0.00 0.41 0.00 83 1008.8
20260507080056 15 101 4.8 8.0 0.00 0.41 0.00 83 1008.9
20260507075544 15 108 3.2 8.0 0.00 0.41 0.00 84 1008.8
20260507075042 15 120 3.2 9.7 0.00 0.41 0.00 84 1008.8
20260507074606 15 98 3.2 9.7 0.00 0.41 0.00 85 1008.8
20260507074042 14 94 1.6 6.4 0.00 0.41 0.00 86 1008.9
20260507073542 14 102 3.2 8.0 0.00 0.41 0.00 85 1008.7
20260507073100 14 101 1.6 9.7 0.00 0.41 0.00 87 1008.8
20260507072542 14 118 4.8 9.7 0.00 0.41 0.00 86 1008.7
20260507072043 14 97 3.2 8.0 0.00 0.41 0.00 87 1008.7
20260507071553 13 105 3.2 8.0 0.00 0.41 0.00 88 1008.7
20260507071042 13 104 4.8 8.0 0.00 0.41 0.00 88 1008.7
20260507070542 13 120 6.4 8.0 0.00 0.41 0.00 88 1008.7
20260507070055 13 104 0.0 6.4 0.00 0.41 0.00 90 1008.7
20260507065541 13 108 3.2 6.4 0.00 0.43 0.00 89 1008.6
20260507065042 13 106 4.8 6.4 0.00 0.43 0.00 89 1008.6
20260507064557 13 96 1.6 3.2 0.00 0.43 0.00 89 1008.7
20260507064045 13 0 0.0 1.6 0.00 0.43 0.00 90 1008.7
20260507063543 12 0 0.0 1.6 0.00 0.43 0.00 90 1008.7
20260507063051 12 0 0.0 3.2 0.00 0.43 0.00 91 1008.8
20260507062541 12 0 0.0 3.2 0.00 0.43 0.00 91 1008.7
20260507062042 12 0 0.0 4.8 0.00 0.43 0.00 91 1008.8
20260507061551 12 25 1.6 4.8 0.00 0.43 0.00 90 1008.6
20260507061043 12 326 3.2 4.8 0.00 0.43 0.00 90 1008.5
20260507060544 12 65 0.0 1.6 0.00 0.43 0.00 90 1008.7
20260507060052 12 0 0.0 0.0 0.00 0.43 0.00 89 1008.7
20260507055542 12 0 0.0 0.0 0.00 0.41 0.00 89 1008.7
20260507055042 12 0 0.0 0.0 0.00 0.41 0.00 89 1008.8
20260507054551 12 0 0.0 1.6 0.00 0.41 0.00 89 1008.7
20260507054042 12 0 0.0 1.6 0.00 0.41 0.00 89 1008.6
20260507053542 12 67 0.0 1.6 0.00 0.41 0.00 90 1008.5
20260507053048 12 0 0.0 1.6 0.00 0.41 0.00 90 1008.5
20260507052542 12 0 0.0 1.6 0.00 0.41 0.00 91 1008.4
20260507052042 12 59 0.0 1.6 0.00 0.41 0.00 92 1008.3
20260507051549 12 58 0.0 1.6 0.00 0.41 0.00 93 1008.3
20260507051042 12 0 0.0 1.6 0.00 0.41 0.00 93 1008.2
20260507050546 12 58 0.0 1.6 0.00 0.41 0.00 93 1008.2
20260507050047 12 0 0.0 1.6 0.00 0.41 0.00 93 1008.2
20260507045542 12 86 0.0 1.6 0.00 0.41 0.00 93 1008.1
20260507045043 12 0 0.0 1.6 0.00 0.41 0.00 93 1008.0
20260507044551 12 0 0.0 1.6 0.00 0.41 0.00 93 1008.0
20260507044042 12 0 0.0 1.6 0.00 0.41 0.00 94 1008.0
20260507043542 12 0 0.0 1.6 0.00 0.41 0.00 94 1007.9
20260507043052 11 86 0.0 1.6 0.00 0.41 0.00 95 1008.0
20260507042542 11 0 0.0 0.0 0.00 0.41 0.00 94 1007.9
20260507042042 11 0 0.0 0.0 0.00 0.41 0.00 94 1007.9
20260507041551 11 0 0.0 1.6 0.00 0.41 0.00 94 1007.9
20260507041045 11 0 0.0 3.2 0.00 0.41 0.00 94 1007.8
20260507040542 11 89 0.0 3.2 0.00 0.41 0.00 94 1007.6
20260507040052 11 90 1.6 3.2 0.00 0.41 0.00 94 1007.7
20260507035543 11 0 0.0 0.0 0.00 0.43 0.00 94 1007.7
20260507035043 11 0 0.0 0.0 0.00 0.43 0.00 94 1007.7
20260507034549 11 0 0.0 0.0 0.00 0.43 0.00 94 1007.6
20260507034042 11 0 0.0 0.0 0.00 0.43 0.00 94 1007.6
20260507033542 11 0 0.0 0.0 0.00 0.43 0.00 94 1007.6
20260507033052 11 0 0.0 0.0 0.00 0.43 0.00 94 1007.5
20260507032545 11 0 0.0 0.0 0.00 0.43 0.00 94 1007.5
20260507032046 11 0 0.0 0.0 0.00 0.43 0.00 93 1007.4
20260507031551 11 0 0.0 0.0 0.00 0.43 0.00 93 1007.5
20260507031047 11 0 0.0 0.0 0.00 0.43 0.00 93 1007.6
20260507030542 11 0 0.0 0.0 0.00 0.43 0.00 93 1007.5
20260507030051 11 0 0.0 0.0 0.00 0.43 0.00 93 1007.6
20260507025546 11 0 0.0 0.0 0.00 0.56 0.00 92 1007.5
20260507025047 11 0 0.0 0.0 0.00 0.56 0.00 92 1007.5
20260507024602 11 0 0.0 0.0 0.00 0.56 0.00 92 1007.5
20260507024045 11 0 0.0 0.0 0.00 0.56 0.00 92 1007.5
20260507023549 11 0 0.0 0.0 0.00 0.56 0.00 92 1007.5
20260507023052 11 0 0.0 0.0 0.00 0.56 0.00 92 1007.5
20260507022545 11 0 0.0 0.0 0.00 0.56 0.00 92 1007.5
20260507022043 11 0 0.0 0.0 0.00 0.56 0.00 92 1007.5
20260507021551 11 0 0.0 1.6 0.00 0.56 0.00 92 1007.5
20260507021042 11 0 0.0 3.2 0.00 0.56 0.00 93 1007.5
20260507020542 11 76 1.6 3.2 0.00 0.56 0.00 94 1007.5
20260507020107 11 0 0.0 1.6 0.00 0.56 0.00 94 1007.5
20260507015542 11 0 0.0 1.6 0.00 0.58 0.00 94 1007.4
20260507015042 11 0 0.0 0.0 0.00 0.58 0.00 94 1007.4
20260507014603 11 0 0.0 1.6 0.00 0.58 0.00 94 1007.4
20260507014041 11 0 0.0 1.6 0.00 0.58 0.00 94 1007.5
20260507013542 11 0 0.0 1.6 0.00 0.58 0.00 94 1007.6
20260507013052 11 0 0.0 1.6 0.00 0.58 0.00 94 1007.6
20260507012542 11 0 0.0 1.6 0.00 0.58 0.00 94 1007.6
20260507012044 11 0 0.0 1.6 0.00 0.58 0.00 94 1007.6
20260507011549 11 0 0.0 1.6 0.00 0.58 0.00 93 1007.4
20260507011042 11 0 0.0 1.6 0.00 0.58 0.00 93 1007.5
20260507010542 11 82 0.0 3.2 0.00 0.58 0.00 93 1007.5
20260507010050 11 0 0.0 3.2 0.00 0.58 0.00 92 1007.4
20260507005542 11 0 0.0 0.0 0.00 0.58 0.00 92 1007.5
20260507005043 11 0 0.0 0.0 0.00 0.58 0.00 91 1007.4
20260507004547 11 0 0.0 0.0 0.00 0.58 0.00 92 1007.4
20260507004042 11 0 0.0 1.6 0.00 0.58 0.00 93 1007.4
20260507003542 11 0 0.0 1.6 0.00 0.58 0.00 93 1007.4
20260507003049 11 67 0.0 1.6 0.00 0.58 0.00 94 1007.3
20260507002542 11 66 0.0 1.6 0.00 0.58 0.00 93 1007.3
20260507002045 11 67 0.0 1.6 0.00 0.58 0.00 93 1007.3
20260507001554 11 0 0.0 1.6 0.00 0.58 0.00 93 1007.2
20260507001041 11 88 0.0 1.6 0.00 0.58 0.00 93 1007.3
20260507000546 11 88 0.0 3.2 0.00 0.58 0.00 93 1007.2
20260507000055 11 0 0.0 3.2 0.00 0.58 0.00 93 1007.2
20260506235546 11 88 0.0 3.2 0.00 0.58 0.00 93 1007.2
20260506235044 11 0 0.0 1.6 0.00 0.58 0.00 93 1007.3
20260506234556 11 0 0.0 0.0 0.00 0.58 0.00 92 1007.2
20260506234042 11 0 0.0 3.2 0.00 0.58 0.00 91 1007.2
20260506233543 11 0 0.0 3.2 0.00 0.58 0.00 91 1007.3
20260506233054 11 96 1.6 3.2 0.00 0.58 0.00 89 1007.2
20260506232543 11 0 0.0 3.2 0.00 0.58 0.00 90 1007.3
20260506232042 11 93 0.0 8.0 0.00 0.58 0.00 90 1007.2
20260506231559 11 0 1.6 8.0 0.00 0.58 0.00 91 1007.2
20260506231042 11 59 3.2 4.8 0.00 0.58 0.00 92 1007.2
20260506230542 11 0 0.0 1.6 0.00 0.58 0.00 93 1007.2
20260506230058 11 0 0.0 3.2 0.00 0.58 0.00 93 1007.2
20260506225542 11 89 0.0 3.2 0.00 0.58 0.00 93 1007.3
20260506225042 11 90 1.6 3.2 0.00 0.58 0.00 93 1007.3
20260506224600 11 0 0.0 0.0 0.00 0.58 0.00 93 1007.3
20260506224041 11 0 0.0 1.6 0.00 0.58 0.00 93 1007.3
20260506223542 11 0 0.0 1.6 0.00 0.58 0.00 93 1007.2
20260506223059 11 0 0.0 1.6 0.00 0.58 0.00 92 1007.3
20260506222542 11 0 0.0 3.2 0.00 0.58 0.00 92 1007.2
20260506222043 11 0 0.0 3.2 0.00 0.58 0.00 91 1007.2
20260506221557 12 0 0.0 1.6 0.00 0.58 0.00 91 1007.2
20260506221042 12 0 0.0 1.6 0.00 0.58 0.00 90 1007.2
20260506220542 12 0 0.0 1.6 0.00 0.58 0.00 90 1007.3
20260506220057 12 85 0.0 6.4 0.00 0.58 0.00 89 1007.3
20260506215543 12 0 0.0 6.4 0.00 0.58 0.58 88 1007.3
20260506215042 12 91 1.6 4.8 0.00 0.58 0.58 89 1007.2
20260506214553 12 80 1.6 8.0 0.00 0.58 0.58 90 1007.3
20260506214042 12 33 3.2 8.0 0.00 0.58 0.58 91 1007.1
20260506213544 12 326 4.8 8.0 0.00 0.58 0.58 92 1007.1
20260506213113 12 42 1.6 3.2 0.00 0.58 0.58 92 1007.1
20260506212542 12 0 0.0 3.2 0.00 0.58 0.58 92 1007.0
20260506212042 12 0 0.0 4.8 0.00 0.58 0.58 92 1007.0
20260506211608 12 0 3.2 4.8 0.00 0.58 0.58 92 1006.9
20260506211042 12 0 0.0 1.6 0.00 0.58 0.58 93 1006.9
20260506210542 12 0 0.0 4.8 0.00 0.58 0.58 93 1006.9
20260506210050 11 75 0.0 4.8 0.00 0.58 0.58 93 1006.9
20260506205542 11 94 4.8 4.8 0.00 0.58 0.58 92 1006.8
20260506205042 12 95 0.0 6.4 0.00 0.58 0.58 92 1006.9
20260506204556 12 98 1.6 6.4 0.00 0.58 0.58 92 1006.9
20260506204043 12 105 3.2 4.8 0.00 0.58 0.58 92 1006.8
20260506203542 11 18 3.2 3.2 0.00 0.58 0.58 92 1006.7
20260506203052 11 52 0.0 3.2 0.00 0.58 0.58 92 1006.8
20260506202542 11 0 0.0 3.2 0.00 0.58 0.58 92 1006.8
20260506202045 11 10 1.6 4.8 0.00 0.58 0.58 92 1006.8
20260506201601 11 8 3.2 4.8 0.00 0.58 0.58 91 1006.7
20260506201042 11 70 0.0 1.6 0.00 0.58 0.58 91 1006.6
20260506200542 12 0 0.0 0.0 0.00 0.58 0.58 91 1006.4
20260506200058 12 0 0.0 4.8 0.00 0.58 0.58 91 1006.3
20260506195543 12 0 3.2 4.8 0.00 0.66 0.58 90 1006.1
20260506195042 12 93 0.0 4.8 0.00 0.66 0.58 89 1006.0
20260506194609 12 99 1.6 8.0 0.00 0.66 0.58 88 1005.9
20260506194045 12 95 3.2 8.0 0.00 0.66 0.58 88 1005.9
20260506193542 12 98 3.2 8.0 0.00 0.66 0.58 87 1005.8
20260506193053 12 89 4.8 8.0 0.00 0.66 0.58 87 1005.7
20260506192543 12 79 1.6 4.8 0.00 0.66 0.58 89 1005.7
20260506192042 12 63 0.0 1.6 0.00 0.66 0.58 90 1005.5
20260506191551 11 39 0.0 1.6 0.00 0.66 0.58 90 1005.5
20260506191044 12 0 0.0 1.6 0.00 0.66 0.58 90 1005.5
20260506190542 12 0 0.0 4.8 0.00 0.66 0.58 89 1005.5
20260506190054 12 10 1.6 4.8 0.00 0.66 0.58 88 1005.4
20260506185542 12 8 1.6 3.2 0.00 0.66 0.58 85 1005.4
20260506185045 12 0 0.0 6.4 0.00 0.66 0.58 85 1005.2
20260506184604 12 82 3.2 6.4 0.00 0.66 0.58 86 1005.2
20260506184042 12 88 3.2 9.7 0.00 0.66 0.58 86 1005.1
20260506183542 13 100 3.2 9.7 0.00 0.66 0.58 85 1005.2
20260506183104 13 89 4.8 9.7 0.00 0.66 0.58 85 1005.2
20260506182541 13 101 1.6 6.4 0.00 0.66 0.58 85 1005.3
20260506182044 13 96 4.8 6.4 0.00 0.66 0.58 86 1005.2
20260506181552 13 95 3.2 6.4 0.00 0.66 0.58 87 1005.1
20260506181042 13 91 1.6 4.8 0.00 0.66 0.58 87 1005.1
20260506180541 13 91 3.2 6.4 0.00 0.66 0.58 86 1005.0
20260506180058 13 96 3.2 6.4 0.00 0.66 0.58 85 1005.0
20260506175545 13 98 1.6 6.4 0.00 0.66 0.58 84 1005.0
20260506175042 13 87 1.6 6.4 0.00 0.66 0.58 84 1004.9
20260506174552 13 95 3.2 6.4 0.00 0.66 0.58 84 1004.8
20260506174041 13 93 3.2 6.4 0.00 0.66 0.58 84 1004.7
20260506173542 13 81 3.2 8.0 0.00 0.66 0.58 85 1004.6
20260506173053 14 92 3.2 8.0 0.00 0.66 0.58 86 1004.6
20260506172544 14 88 1.6 4.8 0.00 0.66 0.58 86 1004.5
20260506172044 15 94 3.2 4.8 0.00 0.66 0.58 85 1004.5
20260506171549 15 90 1.6 4.8 0.00 0.66 0.58 83 1004.5
20260506171044 15 0 0.0 6.4 0.00 0.66 0.58 83 1004.4
20260506170542 15 99 3.2 6.4 0.00 0.66 0.58 82 1004.2
20260506170107 15 100 1.6 6.4 0.00 0.66 0.58 83 1004.1
20260506165543 15 98 1.6 6.4 0.00 0.66 0.58 83 1004.2
20260506165046 15 0 1.6 8.0 0.00 0.66 0.58 84 1004.2
20260506164551 15 0 3.2 8.0 0.00 0.66 0.58 83 1004.2
20260506164041 15 100 3.2 8.0 0.00 0.66 0.58 81 1004.2
20260506163541 15 89 3.2 8.0 0.00 0.66 0.58 78 1004.0
20260506163102 15 84 1.6 9.7 0.00 0.66 0.58 78 1004.1
20260506162542 15 41 3.2 9.7 0.00 0.66 0.58 78 1004.1
20260506162044 15 84 4.8 8.0 0.00 0.66 0.58 79 1004.0
20260506161544 15 63 1.6 4.8 0.00 0.66 0.58 81 1004.0
20260506161043 15 66 1.6 4.8 0.00 0.66 0.58 81 1004.0
20260506160542 15 0 1.6 6.4 0.00 0.66 0.58 82 1004.0
20260506160050 15 43 3.2 6.4 0.00 0.66 0.58 82 1004.0
20260506155542 15 23 3.2 9.7 0.00 0.66 0.58 82 1004.0
20260506155044 15 37 4.8 9.7 0.00 0.66 0.58 83 1004.1
20260506154553 15 49 3.2 9.7 0.00 0.66 0.58 85 1004.2
20260506154042 15 65 0.0 9.7 0.00 0.66 0.58 84 1004.3
20260506153542 15 65 1.6 14.5 0.00 0.66 0.58 82 1004.3
20260506153051 15 86 6.4 14.5 0.00 0.66 0.58 82 1004.3
20260506152541 15 114 8.0 12.9 0.00 0.66 0.58 80 1004.3
20260506152042 15 96 8.0 14.5 0.00 0.66 0.58 80 1004.4
20260506151550 15 78 9.7 14.5 0.00 0.66 0.58 81 1004.4
20260506151046 15 91 3.2 8.0 0.00 0.66 0.58 82 1004.6
20260506150542 15 60 4.8 8.0 0.00 0.66 0.58 84 1004.6
20260506150048 15 66 4.8 6.4 0.00 0.66 0.58 83 1004.6
20260506145544 15 83 1.6 11.3 0.00 0.66 0.58 84 1004.6
20260506145047 15 33 3.2 11.3 0.00 0.66 0.58 82 1004.6
20260506144601 15 325 4.8 11.3 0.00 0.66 0.58 83 1004.7
20260506144042 15 285 3.2 14.5 0.00 0.66 0.58 84 1004.7
20260506143542 15 66 4.8 14.5 0.00 0.66 0.58 83 1004.7
20260506143049 14 350 8.0 27.4 0.00 0.66 0.58 82 1004.7
20260506142542 14 322 9.7 27.4 0.00 0.66 0.58 81 1004.9
20260506142041 14 304 8.0 16.1 0.03 0.66 0.58 83 1005.0
20260506141550 14 348 4.8 16.1 0.08 0.66 0.58 84 1005.0
20260506141042 14 295 9.7 27.4 0.10 0.66 0.58 84 1005.2
20260506140542 14 324 17.7 27.4 0.18 0.66 0.58 83 1005.2
20260506140049 14 270 14.5 25.7 0.25 0.66 0.58 86 1005.1
20260506135541 13 263 16.1 25.7 0.28 0.66 0.58 87 1005.0
20260506135041 13 266 14.5 20.9 0.28 0.66 0.58 88 1005.1
20260506134546 13 293 12.9 20.9 0.28 0.66 0.58 88 1005.2
20260506134042 13 278 12.9 17.7 0.28 0.66 0.58 90 1005.1